Flag for Norway Weather past 2 weeks in Lillesand, Norway

Now
54 °F

Cool.


Feels Like: 53 °F
Forecast: 40 / 57 °F
Wind: 6 mph from South

Location: Kristiansand / Kjevik


UV Index: 0 (Low)

Visibility: N/A


Pressure: 30.28 "Hg

Humidity: 61%

Dew point: 41 °F

Location of LillesandLocation

Historic Weather in Lillesand

°F

Lillesand temperature yesterday

Maximum temperature yesterday: 56 °F (at 1:00 PM)
Minimum temperature yesterday: 36 °F (at 5:00 AM)
Average temperature yesterday: 47 °F

Past Weeks' High & Low Weather Summary

 TemperatureHumidityPressure
High56 °F (Apr 18, 1:00 PM)100% (Apr 6, 7:00 AM)30.36 "Hg (Apr 6, 7:00 AM)
Low31 °F (Apr 11, 6:00 AM)24% (Apr 15, 1:00 PM)29.44 "Hg (Apr 8, 8:00 AM)
Average44 °F78%29.90 "Hg
* Reported Apr 4 3:00 PM — Apr 19 3:00 PM, Lillesand, Weather by CustomWeather, © 2014

Note: Actual official high and low records may vary slightly from our data, if they occured in-between our weather recording intervals... More about our weather records

Advertising

Historic Weather Conditions — Data for Previous 24 hours

 ConditionsComfort  
Time TempWeatherWind HumidityBarometerVisibility
3:00 PM
Apr 19
56 °FRefreshingly cool.5 mph53%30.29 "HgN/A
2:00 PM56 °FRefreshingly cool.5 mph56%30.30 "HgN/A
1:00 PM55 °FCool.3 mph59%30.30 "HgN/A
12:00 PM53 °FCool.3 mph59%30.30 "HgN/A
11:00 AM55 °FCool.1 mph53%30.31 "HgN/A
10:00 AM51 °FCool.3 mph60%30.30 "HgN/A
9:00 AM46 °FCool.2 mph70%30.30 "HgN/A
8:00 AM40 °FChilly.1 mph82%30.29 "HgN/A
7:00 AM35 °FChilly.2 mph89%30.28 "HgN/A
6:00 AM33 °FChilly.2 mph92%30.27 "HgN/A
5:00 AM33 °FChilly.2 mph91%30.27 "HgN/A
4:00 AM34 °FChilly.3 mph91%30.26 "HgN/A
3:00 AM33 °FChilly.3 mph91%30.25 "HgN/A
2:00 AM36 °FChilly.2 mph90%30.24 "HgN/A
1:00 AM36 °FChilly.2 mph90%30.23 "HgN/A
12:00 AM36 °FChilly.3 mph90%30.22 "HgN/A
10:00 PM
Apr 18
40 °FQuite cool.3 mph81%30.17 "HgN/A
9:00 PM47 °FCool.1 mph56%30.14 "HgN/A
8:00 PM49 °FCool.3 mph52%30.12 "HgN/A
7:00 PM51 °FCool.6 mph48%30.10 "HgN/A
6:00 PM51 °FCool.7 mph47%30.07 "HgN/A
5:00 PM51 °FCool.7 mph46%30.05 "HgN/A
4:00 PM53 °FCool.6 mph42%30.02 "HgN/A
Weather by CustomWeather, © 2014

See weather overview